Regional Weather Roundup
Issued by NWS Green Bay, WI

Home | Current Version | Previous Version | Text Only | Print | Product List | Glossary On
Versions: 1 2 3 4 5 6 7 8 9 10 11 12 13 14 15 16 17 18 19 20 21 22 23 24 25 26 27 28 29 30 31 32 33 34 35 36 37 38 39 40 41 42 43 44 45 46 47 48 49 50
000
ASUS43 KGRB 230011
RWRGRB

NORTH-CENTRAL AND NORTHEAST WISCONSIN REGIONAL WEATHER ROUNDUP
NATIONAL WEATHER SERVICE GREEN BAY WI
600 PM CST THU FEB 22 2018

WIZ005-009-010>012-018-019-230100-
NORTH CENTRAL WISCONSIN

CITY           SKY/WX    TMP DP  RH WIND       PRES   REMARKS
IRONWOOD       CLOUDY    30  12  47 CALM      30.45F
MANITOWISH WTR CLOUDY    30  10  44 CALM      30.43F
ARBOR VITAE    CLOUDY    32  13  45 SE8       30.43F
EAGLE RIVER    FAIR      29   9  43 SE6       30.44F
LAND O LAKES   CLOUDY    30  10  43 SE6       30.46F
RHINELANDER    CLOUDY    29  14  53 SE7       30.45F
PHILLIPS       CLOUDY    29  11  47 SE7       30.42F
ANTIGO         CLOUDY    26  16  64 E6        30.46F
TOMAHAWK       CLOUDY    28  13  52 SE5       30.46F
MERRILL        CLOUDY    29  14  53 SE5       30.47S
$$

WIZ013-073-230100-
NORTHEAST WISCONSIN

CITY           SKY/WX    TMP DP  RH WIND       PRES   REMARKS
IRON MOUNTAIN  CLOUDY    28  18  66 SE7       30.50F
MARINETTE      MOCLDY    27  21  78 NE13      30.55F
OCONTO         CLOUDY    28  21  74 NE6       30.53F
$$

WIZ017-030-035>037-045-230100-
CENTRAL WISCONSIN

CITY           SKY/WX    TMP DP  RH WIND       PRES   REMARKS
MEDFORD        CLOUDY    27  13  54 E6        30.42F
WAUSAU         CLOUDY    28  14  55 E9        30.44F
MOSINEE        CLOUDY    27  18  69 E10       30.46F
MARSHFIELD     CLOUDY    27  18  69 E8        30.42F
WISC RAPIDS    CLOUDY    29  18  63 E10       30.45F
STEVENS POINT  CLOUDY    27  17  67 E8        30.46F
WAUPACA        CLOUDY    32  21  63 NE5       30.48F
SHAWANO        CLOUDY    31  20  64 E6        30.51F
CLINTONVILLE   CLOUDY    30  19  61 E6        30.50F
WAUTOMA        CLOUDY    31  22  69 NE9       30.45
$$

WIZ038-039-048-051-230100-
FOX VALLEY

CITY           SKY/WX    TMP DP  RH WIND       PRES   REMARKS
NWS GREEN BAY  CLOUDY    30  22  72 NE7       30.52F
APPLETON       CLOUDY    30  19  64 NE9       30.47F
OSHKOSH        CLOUDY    31  21  66 E9        30.47F
FOND DU LAC    CLOUDY    32  23  69 NE13      30.46F
$$

WIZ022-050-052-230100-
EAST CENTRAL WISCONSIN

CITY           SKY/WX    TMP DP  RH WIND       PRES   REMARKS
EPHRAIM        CLOUDY    28  24  83 E3        30.54S
WASHINGTON ISL MOCLDY    29  23  79 E5        30.55F
STURGEON BAY   CLOUDY    30  25  81 E6        30.53F
MANITOWOC      NOT AVBL
SHEBOYGAN      CLOUDY    32  27  81 NE13      30.48F
$$

LMZ563-521-522-541>543-230100-
LAKESHORE

STATION/POSITION TIME  TEMP    WIND        PRES    VSBY  WAVE
                       AIR SEA DIR/SP/G                  HT/PER
                 (UTC) (F)     (DEG/KT/KT) (MB)    (MI)  (FT/S)
SHEBOYGAN LKSHOR 0000   33      40/ 14/ 16 1032.8F
KEWAUNEE LKSHORE 2342   32      40/  7/ 11 1032.8F
NORTHPORT PIER   2340   30                 1034.2F
SISTER BAY LKSHO 2320   30     120/  6/  9   N/A
MENOMINEE LKSHOR 2342   27      10/  7/  8 1034.3F
$$



USA.gov is the U.S. government's official web portal to all federal, state and local government web resources and services.